Regional Weather Roundup
Issued by NWS Newport/Morehead, NC

Current Version | Previous Version | Text Only | Print | Product List | Glossary Off
Versions: 1 2 3 4 5 6 7 8 9 10 11 12 13 14 15 16 17 18 19 20 21 22 23 24 25 26 27 28 29 30 31 32 33 34 35 36 37 38 39 40 41 42 43 44 45 46 47 48 49 50
000 ASUS42 KMHX 051512 RWRMHX WEATHER ROUNDUP FOR EASTERN NORTH CAROLINA NATIONAL WEATHER SERVICE NEWPORT/MOREHEAD CITY NC 1000 AM EST MON DEC 05 2016 NOTE: "FAIR" INDICATES FEW OR NO CLOUDS BELOW 12,000 FEET WITH NO SIGNIFICANT WEATHER AND/OR OBSTRUCTIONS TO VISIBILITY NCZ015>017-031-032-045>047-102-103-051600- NORTH COAST CITY SKY/WX TMP DP RH WIND PRES REMARKS EDENTON CLOUDY 50 47 92 CALM 30.01R ELIZABETH CITY CLOUDY 50 48 93 NW6 29.99R KITTY HAWK CLOUDY 52 52 100 N9G20 29.96R MANTEO CLOUDY 51 51 100 N12G17 29.96R $$ NCZ045>047-081-094-103-104-051600- CENTRAL COAST CITY SKY/WX TMP DP RH WIND PRES REMARKS FRISCO CLOUDY 53 52 96 VRB6 29.96R $$ NCZ095-097-098-100-101-051600- SOUTHERN COAST CITY SKY/WX TMP DP RH WIND PRES REMARKS BEAUFORT CLOUDY 53 51 93 N14 29.99R CEDAR ISLAND NOT AVBL JACKSONVILLE CLOUDY 49 48 97 NW12 30.01R PINEY ISLAND CLOUDY N/A N/A N/A NW13 29.98R WILMINGTON CLOUDY 50 49 96 NW8 30.02R $$ NCZ011>013-027>030-043-044-078>080-089-090>093-098-051600- COASTAL PLAIN CITY SKY/WX TMP DP RH WIND PRES REMARKS AHOSKIE CLOUDY 44 43 97 CALM 30.03R CLINTON MOSUNNY 47 46 93 N5 30.04R ELIZABETHTOWN CLOUDY 47 47 100 CALM 30.03R GOLDSBORO NOT AVBL GREENVILLE CLOUDY 46 46 100 N3 30.04R HAVELOCK CLOUDY 50 48 93 N13 30.00R KENANSVILLE CLOUDY 46 45 93 N5 30.02S KINSTON PTSUNNY 48 48 100 N7 30.03R NEW BERN CLOUDY 48 46 93 N9 30.01S RICHLANDS CLOUDY 49 47 93 VRB7 30.02R ROCKY MOUNT CLOUDY 47 46 97 W3 30.03R WASHINGTON PTSUNNY 48 45 91 NW6 30.02R WHITEVILLE CLOUDY 47 46 95 CALM 30.02S $$ AMZ130-135-150-152-154-156-158-170-250-252-270-ANZ085-086-088-633-658-670-051600- MARINE OBSERVATIONS STATION/POSITION TIME TEMP WIND PRES WAVE SWELL AIR SEA DIR/SP/G HT/PER HT/PER (UTC) (F) (DEG/KT/KT) (MB) (FT/S) (FT/S) CHESAPEAKE LIGHT NOT AVBL 64 E VA BEACH 1450 56 60 10/ 21/ 25 1013.2 4/ 4 2/ 8 DUCK 1436 52 54 10/ 17/ 20 1014.2 2 E DUCK NOT AVBL OREGON INLET 1436 54 56 340/ 12/ 16 1014.2 13E OREGON INLT NOT AVBL HATTERAS CG 1436 53 60 330/ 17/ 21 1014.0 DIAMOND BUOY 1450 60 74 340/ 19/ 25 1013.2 6/ 7 5/ 7 CAPE LOOKOUT 1500 53 340/ 13/ 15 1014.8 BEAUFORT LAB 1436 52 55 340/ 8/ 13 1013.9 30 SE NEW RVR IN 1408 55 71 330/ 16 1013.1 30 SE NEW RVR IN NOT AVBL 27 SE WRIGHTSVLE 1408 59 67 320/ 16/ 21 1013.7 5 SE WRIGHTSVLE 1408 51 63 340/ 14/ 25 1015.2 225 S CAPE HAT 1450 72 73 200/ 17/ 21 1017.8 5/ 5 2/ 8 41 SE CHARLESTON 1450 74 74 250/ 16/ 19 1014.5 7/ 7 2/11 $$

USA.gov is the U.S. government's official web portal to all federal, state and local government web resources and services.